Trophée Interrégional Lucien-Zins

Interrégionale

OYONNAX

Du Samedi 22 Juin 2013 au Dimanche 23 Juin 2013

Bassin de 50m

50 Brasse Dames

Séries

Nom Année Club Pays Temps Points Niv.
1 LABELLE Laure 2000 AC ALLAUCH FRA 0:39:14 992
2 GONTIER Eve 2000 LYON NATATION FRA 0:39:44 979
3 MARCHIO Manon 2000 OLYMPIC NICE NATATION FRA 0:39:46 978
4 COLLIER Emilie 2000 NAUTIC CLUB NÎMES FRA 0:39:58 972
5 PEYRIEUX Farah 2000 ST-ETIENNE NATATION FRA 0:39:85 960
6 PERRIN Marine 2000 DAUPHINS ROMANS PÉAGOIS FRA 0:40:20 945
7 PILON Dina 2000 OLYMPIC NICE NATATION FRA 0:40:27 942
8 YAPP Jennifer 2000 CN LA CIOTAT FRA 0:40:75 921
9 URBANIAK Anastasia 2000 ND VILLEFRANCHE-EN-BEAUJOLAIS FRA 0:40:81 918
10 MENY Elise 2000 NAUTIC CLUB ALP'38 FRA 0:40:86 916
11 COURTIER Alexandrine 2001 CN LA CIOTAT FRA 0:40:90 914
12 LAFLEURIEL Rose 2000 MOULINS AQUAVIE FRA 0:41:04 908
13 MONTOY Fiona 2000 DAUPHINS FC SÈTE FRA 0:41:17 902
14 BARALE Lison 2000 AC HYÈRES FRA 0:41:20 901
15 COURIOL Justine 2000 AGGLO LE PUY EN VELAY NATATION FRA 0:41:20 901
16 VENTURA Andrea 2000 CN CANNES FRA 0:41:21 901
17 VENTRE Emma 2000 ASPTT AURILLAC FRA 0:41:30 897
18 JEAN Noémie 2000 ASPTT TOULON FRA 0:41:49 889
19 DEAGE Albane 2001 ASPTT TOULON FRA 0:41:63 883
20 CHABAS Aure 2000 NAUTIC CLUB NÎMES FRA 0:41:67 881
21 BESSET Oriane 2000 CHASSIEU NATATION FRA 0:41:83 874
22 SALERNO Luna 2000 NAUTIC CLUB ALP'38 FRA 0:41:84 874
23 HEY Claudia 2001 PAYS D'AIX NATATION FRA 0:41:88 872
24 MONTCHALIN Laura 2000 ST-ETIENNE NATATION FRA 0:41:89 872
25 MAISONNEUVE Laurie 2000 US VIC-LE-COMTE NATATION FRA 0:41:92 870
26 BROSSY Marine 2001 STADE ST-LAURENT-DU-VAR NAT FRA 0:42:03 866
27 BAULIER Emilie 2000 CN LUNEL FRA 0:42:04 865
28 CADOU Margaux 2001 STADE CLERMONT NATATION FRA 0:42:09 863
29 BERTHIAUD Elise 2000 ST-ETIENNE NATATION FRA 0:42:16 860
30 DIAZ Alizée 2001 TAHITI TAH 0:42:23 857
31 FILLOUX Alixia 2000 MONTPELLIER ANUC FRA 0:42:40 850
32 MAITRE Camille 2001 DAUPHINS ROMANS PÉAGOIS FRA 0:42:48 847
33 SCHENKEL Ninon 2001 CHAMALIERES-MONTFERRAND N FRA 0:42:51 845
34 LEGELEUX Ambre 2000 NAUTIC CLUB ALP'38 FRA 0:42:58 843
35 BRIMEUX Louana 2000 AS CACHALOTS SIX-FOURS FRA 0:42:62 841
36 MALRIC Laura 2000 DAUPHINS FC SÈTE FRA 0:42:62 841
37 BROSSIER Alizée 2000 TOULON VAR NATATION FRA 0:42:64 840
38 EZZAHR Inès 2000 C.N.P.P BOLLENE FRA 0:42:65 840
39 NIEDERLAENDER Mathilde 2000 A.C SEYSSINETTOIS NATATION FRA 0:42:65 840
40 MACIERI Sandra 2000 CN CANNES FRA 0:42:99 826
41 VERNIER Lisa 2000 DAUPHINS D'ANNECY FRA 0:43:02 824
42 NASRI Shaynez 2000 LYON NATATION FRA 0:43:08 822
43 BROC Justine 2001 DAUPHINS DE GUILHERAND GRANGES FRA 0:43:09 821
44 POZZEBON Elise 2001 CS BOURGOIN-JALLIEU NATATION FRA 0:43:13 820
45 BRUN Justine 2001 US ST-EGRÈVE FRA 0:43:20 817
46 LHOMME Claire 2000 CA PIERRELATTE ASCEAC FRA 0:43:23 816
47 DUBERNET Emilie 2000 STADE CLERMONT NATATION FRA 0:43:25 815
48 RAYNAUD Emma 2000 CNS ST-ESTÈVE FRA 0:43:26 814
49 BOISSON Blandine 2000 PAYS VIENNOIS NATATION FRA 0:43:42 808
50 BESSEDE Charlotte 2000 MONTPELLIER ANUC FRA 0:43:44 807
51 BRUNET Julie 2000 CHAMALIERES-MONTFERRAND N FRA 0:43:46 806
52 AUGIER Ysaline 2000 DAUPHINS ROMANS PÉAGOIS FRA 0:43:50 805
53 GIOVANI Ophelie 2000 AUBAGNE NATATION FRA 0:43:51 804
54 NADIR Yasmine 2000 STADE CLERMONT NATATION FRA 0:43:52 804
55 PIC Romane 2000 US VIC-LE-COMTE NATATION FRA 0:43:54 803
56 ANDRIEU Camille 2000 C.N.P.P BOLLENE FRA 0:43:54 803
57 BASCON Paloma 2001 LE-PONT-DE-CLAIX GUC WATERPOLO FRA 0:43:57 802
58 CHABAS Faustine 2000 NAUTIC CLUB NÎMES FRA 0:43:60 801
59 MISZEZUK Laurine 2001 NAUTIC CLUB ALP'38 FRA 0:43:60 801
60 GRANET Léna 2000 CN RIOM FRA 0:43:65 799
61 FUENTES Jade 2000 CN MARSEILLE FRA 0:43:69 797
62 PONCET Emma 2000 DAUPHINS D'ANNECY FRA 0:43:69 797
63 JACQUES Morgane 2000 ND VILLEFRANCHE-EN-BEAUJOLAIS FRA 0:43:72 796
64 DESHONS Emilie 2000 CN LA CIOTAT FRA 0:43:77 794
65 GAUTIER Lou 2000 LE-PONT-DE-CLAIX GUC WATERPOLO FRA 0:43:87 790
66 JOUGLARD Noémie 2000 EP MANOSQUE FRA 0:44:00 784
67 MORENO Fiona 2000 MONTPELLIER ANUC FRA 0:44:00 784
68 CHATEL Laurine 2000 EP MANOSQUE FRA 0:44:16 778
69 GUYON Manuela 2000 ENFANTS DU RHÔNE VALENCE FRA 0:44:20 776
70 GROBET Jessica 2000 DAUPHINS D'ANNECY FRA 0:44:27 774
71 PERRIER GUSTIN Héloïse 2001 CHAMALIERES-MONTFERRAND N FRA 0:44:33 771
72 CADET Coline 2000 VICHY VAL D'ALLIER NATATION FRA 0:44:36 770
73 MARZOLINO Laurie 2001 LE-PONT-DE-CLAIX GUC WATERPOLO FRA 0:44:38 769
74 MYKOLOW Anna 2001 MONTPELLIER ANUC FRA 0:44:43 767
75 UGO Odessa 2000 OLYMPIC NICE NATATION FRA 0:44:45 766
76 VINCENT Manon 2000 SAL ST-PRIEST NATATION FRA 0:44:48 765
77 GONCALVES Léa 2000 US LE PONTET FRA 0:44:51 764
78 LUCAS Nolwenn 2000 GRENOBLE NATATION FRA 0:44:63 759
79 VELLA Julie 2000 CNS ST-ESTÈVE FRA 0:44:70 757
80 UIUNY Marion 2001 NAUTIC CLUB NÎMES FRA 0:44:72 756
81 HOSSINE Anaïs 2000 CN CANNES FRA 0:44:85 751
82 MAURESA Emilie 2001 EMS BRON FRA 0:44:86 750
83 LAFORET Flavie 2000 LYON NATATION FRA 0:44:93 747
84 PASTEUR Coline 2000 NAUTIC CLUB ALP'38 FRA 0:44:99 745
85 BOISSIERE Tess 2000 AGGLO LE PUY EN VELAY NATATION FRA 0:45:04 743
86 DA RE Fiona 2000 VICHY VAL D'ALLIER NATATION FRA 0:45:17 738
87 FABICK Celine 2000 CA PÉZENAS FRA 0:45:22 736
88 BOURDON Marie 2000 AC HYÈRES FRA 0:45:24 735
89 TOME LOPES Patricia 2001 STADE CLERMONT NATATION FRA 0:45:30 733
90 DUBARRY Chiara 2001 CN MARSEILLE FRA 0:45:31 733
91 RUIZ Clara 2001 USN VEDENE FRA 0:45:38 730
92 NGUYEN Alexandra 2000 LYON NATATION FRA 0:45:42 728
93 DAFFOS Anaelle 2001 CNS ST-ESTÈVE FRA 0:45:43 728
94 CHEKROUN Sarah 2001 CLUB DE NATATION DE SASSENAGE FRA 0:45:49 726
95 MOULINET Marie 2001 CN CANNES FRA 0:45:51 725
96 HOUIDEG Lilia 2001 EMS BRON FRA 0:45:63 720
97 FOURAUX Capucine 2000 STADE OLYMPIQUE CHAMBÉRY FRA 0:45:64 720
98 TORRES Elvina 2001 NAUTIC CLUB NÎMES FRA 0:45:75 716
99 MEALLARES Mylene 2000 CA PIERRELATTE ASCEAC FRA 0:45:75 716
100 GINDRO Margaux 2000 VITROLLES SPORT NATATION FRA 0:45:75 716
101 REYMOND Lou 2000 PAYS VIENNOIS NATATION FRA 0:45:76 715
102 SIROP Elsa 2000 CS MEGÈVE NATATION FRA 0:45:92 709
103 MANHES Ilana 2000 STADE CLERMONT NATATION FRA 0:45:97 707
104 PAIN Laetitia 2000 OLYMPIC NICE NATATION FRA 0:45:98 707
105 ROUVIER Alice 2001 AMBÉRIEU NATATION FRA 0:46:02 705
106 RENE Malaury 2000 DAUPHINS YSSINGEAUX FRA 0:46:02 705
107 COUZINET Camille 2000 AS CACHALOTS SIX-FOURS FRA 0:46:39 691
108 CARETTE-NOORI Anabelle 2000 PAYS D'AIX NATATION FRA 0:46:53 686
109 DUSSAUGE Julia 2000 PAYS D'AIX NATATION FRA 0:46:79 676
110 FORTIER Axelle 2000 CN ORANGE FRA 0:46:96 670
111 LIAUD Noemie 2000 NAUTIC CLUB ALP'38 FRA 0:46:98 669
112 STORACE Fanny 2001 US LE PONTET FRA 0:47:04 667
113 COSTA Noane 2001 APT NATATION FRA 0:47:27 658
114 PIQUERET Maelle 2000 TRITON CLUB BELLEVILLE FRA 0:47:41 653
115 COMBIER Maëlle 2000 UN ARLES FRA 0:47:60 646
116 COFFY Elsa 2000 AS VILLENEUVE-LÈS-AVIGNON FRA 0:47:83 638
117 GELFMANN Soizic 2001 CN CANNES FRA 0:47:99 632
118 CHEVALIER Laura 2000 TRITON CLUB BELLEVILLE FRA 0:48:66 608
119 LAGOUCHE Romane 2000 AS CALUIRE FRA 0:48:89 600
120 NOILLET Lou-Anne 2000 RILLIEUX NATATION FRA 0:49:06 594
121 VIOLLET Margot 2000 TRITON CLUB BELLEVILLE FRA 0:49:30 586
122 LASSALLE-BLANC Fanny 2000 ASPTT BASTIA FRA 0:49:33 585
123 RIVOIRARD Brune 2000 NAUTIC CLUB SORBIERS FRA 0:50:35 550
124 COTE Elia 2000 GRENOBLE NATATION FRA 0:50:58 542
125 AUGUSTIN Amandine 2000 EP MANOSQUE FRA - Disq.